Santander Airport, Spain

2:48 AM CEST on May 23, 2017 (GMT +0200)
Santander Airport

Weather History for LEXJ - December, 2012

Change the Weather History Date:

Monday, December 3, 2012

  Actual Average Record
Temperature  
Mean Temperature 52 °F -  
Max Temperature 55 °F 53 °F 69 °F (2015)
Min Temperature 48 °F 43 °F 35 °F (2010)
Degree Days  
Heating Degree Days 14    
Growing Degree Days 2 (Base 50)    
Moisture  
Dew Point 43 °F    
Average Humidity 71    
Maximum Humidity 82    
Minimum Humidity 63    
Precipitation  
Precipitation 0.00 in - - ()
Sea Level Pressure  
Sea Level Pressure 30.30 in    
Wind  
Wind Speed 8 mph ()    
Max Wind Speed 13 mph    
Max Gust Speed -    
Visibility 6.2 miles    
Events Rain    
Averages and records for this station are not official NWS values.
T = Trace of Precipitation, MM = Missing Value Source: Averaged Metar Reports

Daily Weather History Graph

Daily Weather History Graph

Search for Another Location

Airport or City:

Trip Planner

Search our weather history database for the weather conditions in past years. The results will help you decide how hot, cold, wet, or windy it might be!

Date:

Astronomy

Dec. 03, 2012 Rise Set
Actual Time 8:30 AM CET 5:39 PM CET
Civil Twilight 7:58 AM CET 6:11 PM CET
Nautical Twilight 7:22 AM CET 6:47 PM CET
Astronomical Twilight 6:48 AM CET 7:22 PM CET
Moon 10:16 PM CET (12/3) 11:42 AM CET (12/3)
Length of Visible Light 10h 13m
Length of Day
9h 09m
Waning Gibbous, 80% of the Moon is Illuminated
Dec 3
Waning Gibbous
Dec 6
Last Quarter
Dec 13
New
Dec 20
First Quarter
Dec 28
Full

Hourly Weather History & Observations

Time (CET) Temp. Dew Point Humidity Pressure Visibility Wind Dir Wind Speed Gust Speed Precip Events Conditions
5:30 AM 50.0 °F 44.6 °F 82% 30.33 in 6.2 mi SSW 6.9 mph - N/A   Mostly Cloudy
6:00 AM 50.0 °F 42.8 °F 76% 30.33 in 6.2 mi SW 6.9 mph - N/A   Mostly Cloudy
6:30 AM 50.0 °F 42.8 °F 76% 30.36 in 6.2 mi SW 5.8 mph - N/A   Mostly Cloudy
7:00 AM 50.0 °F 42.8 °F 76% 30.36 in 6.2 mi SW 6.9 mph - N/A   Mostly Cloudy
7:30 AM 50.0 °F 42.8 °F 76% 30.36 in 6.2 mi SW 6.9 mph - N/A   Mostly Cloudy
8:00 AM 50.0 °F 42.8 °F 76% 30.36 in 6.2 mi SW 8.1 mph - N/A   Scattered Clouds
8:30 AM 50.0 °F 42.8 °F 76% 30.36 in 6.2 mi SW 9.2 mph - N/A   Scattered Clouds
9:00 AM 48.2 °F 42.8 °F 82% 30.36 in 6.2 mi SSW 9.2 mph - N/A   Partly Cloudy
9:30 AM 50.0 °F 42.8 °F 76% 30.36 in 6.2 mi SW 10.4 mph - N/A   Partly Cloudy
10:00 AM 50.0 °F 42.8 °F 76% 30.36 in 6.2 mi SW 9.2 mph - N/A   Partly Cloudy
10:30 AM 51.8 °F 42.8 °F 71% 30.36 in 6.2 mi SW 9.2 mph - N/A   Partly Cloudy
11:00 AM 53.6 °F 42.8 °F 67% 30.36 in 6.2 mi SW 9.2 mph - N/A   Partly Cloudy
11:30 AM 53.6 °F 42.8 °F 67% 30.36 in 6.2 mi WSW 8.1 mph - N/A   Partly Cloudy
12:00 PM 53.6 °F 42.8 °F 67% 30.36 in 6.2 mi WSW 10.4 mph - N/A   Partly Cloudy
12:30 PM 55.4 °F 44.6 °F 67% 30.36 in 6.2 mi West 10.4 mph - N/A   Partly Cloudy
1:00 PM 55.4 °F 44.6 °F 67% 30.33 in 6.2 mi West 12.7 mph - N/A   Partly Cloudy
1:30 PM 53.6 °F 44.6 °F 72% 30.33 in 6.2 mi West 12.7 mph - N/A   Partly Cloudy
2:00 PM 55.4 °F 44.6 °F 67% 30.33 in 6.2 mi West 12.7 mph - N/A   Partly Cloudy
2:30 PM 55.4 °F 44.6 °F 67% 30.30 in 6.2 mi West 10.4 mph - N/A   Partly Cloudy
3:00 PM 55.4 °F 42.8 °F 63% 30.30 in 6.2 mi West 9.2 mph - N/A   Partly Cloudy
3:30 PM 55.4 °F 42.8 °F 63% 30.30 in 6.2 mi West 11.5 mph - N/A   Partly Cloudy
4:30 PM 53.6 °F 42.8 °F 67% 30.27 in 6.2 mi SW 5.8 mph - N/A   Partly Cloudy
5:00 PM 53.6 °F 42.8 °F 67% 30.27 in 6.2 mi SSW 6.9 mph - N/A   Partly Cloudy
5:30 PM 53.6 °F 42.8 °F 67% 30.27 in 6.2 mi SW 6.9 mph - N/A   Partly Cloudy
6:00 PM 53.6 °F 42.8 °F 67% 30.24 in 6.2 mi SW 6.9 mph - N/A   Scattered Clouds
6:30 PM 51.8 °F 42.8 °F 71% 30.24 in 6.2 mi SW 6.9 mph - N/A   Mostly Cloudy
7:00 PM 51.8 °F 42.8 °F 71% 30.24 in 6.2 mi SW 8.1 mph - N/A   Mostly Cloudy
7:30 PM 51.8 °F 42.8 °F 71% 30.24 in 6.2 mi SW 8.1 mph - N/A   Mostly Cloudy
8:00 PM 51.8 °F 42.8 °F 71% 30.24 in 6.2 mi SW 9.2 mph - N/A   Partly Cloudy
8:30 PM 51.8 °F 42.8 °F 71% 30.21 in - SSW 9.2 mph - N/A   Clear
9:00 PM 51.8 °F 41.0 °F 67% 30.21 in 6.2 mi SSW 9.2 mph - N/A   Partly Cloudy
9:30 PM 51.8 °F 41.0 °F 67% 30.18 in 6.2 mi SW 9.2 mph - N/A   Light Drizzle
10:00 PM 51.8 °F 41.0 °F 67% 30.18 in 6.2 mi SW 8.1 mph - N/A Rain Light Rain
10:30 PM 51.8 °F 41.0 °F 67% 30.18 in 6.2 mi SW 8.1 mph - N/A   Light Drizzle
11:00 PM 51.8 °F 42.8 °F 71% 30.15 in 6.2 mi SW 8.1 mph - N/A   Mostly Cloudy